GLOBALSTAR M065 (31571 NORAD) Tracking and Keplerian Element Data

This shows tracking and keplerian element data for the satellite.

Feedback or suggestion? Click here.




ElementValue
Catalog31571
NameGLOBALSTAR M065
Epoch Orbit85656
Epoch Day351.5977586
Epoch Year2025
RAAN28.0181
Inclination51.9915
Eccentricity0.0009699
Argument of Perigee356.5964
Mean Anonmoly173.4742
Mean Motion12.62015524
Decay Rate-1.14E-06
L11 31571U 07020A 25351.59775860 -.00000114 00000+0 -59491-4 0 9998
L22 31571 51.9915 28.0181 0009699 356.5964 173.4742 12.62015524856566



Live tracking and technical data element details for GLOBALSTAR M065 (NORAD 31571). GLOBALSTAR M065 can be tracked NOW for your location showing map with azimuth and elevation plus other details from your city location.







IsCatalogInMostPopularTable: catalog: 31571, numindb: 317
Update: records affected: 1



GetName: 31571 GLOBALSTAR M065

Hit Count: updated at: Thu, 21 May 2026 11:39:19 GMT